Date,TemperatureHighF,TemperatureAvgF,TemperatureLowF,DewpointHighF,DewpointAvgF,DewpointLowF,HumidityHigh,HumidityAvg,HumidityLow,PressureMaxIn,PressureMinIn,WindSpeedMaxMPH,WindSpeedAvgMPH,GustSpeedMaxMPH,PrecipitationSumIn
2013-1-1,44.0,41.8,39.6,41.0,38.2,35.0,92,87,80,29.97,29.39,8,5,14,0.02
2013-1-2,53.3,47.4,41.9,51.3,46.0,40.6,98,95,91,30.15,29.97,7,2,12,0.14
2013-1-3,53.0,51.5,50.0,50.8,49.4,48.2,97,93,86,30.48,30.15,9,4,14,0.02
2013-1-4,50.7,49.2,47.5,49.0,46.7,45.2,95,91,86,30.53,30.47,7,3,12,0.00
2013-1-5,52.0,49.7,48.7,49.1,46.7,45.0,96,89,85,30.50,30.35,8,2,11,0.05
2013-1-6,49.0,45.9,40.3,47.9,44.1,39.5,99,93,86,30.47,30.26,4,1,10,0.01
2013-1-7,50.4,49.0,46.7,48.5,46.3,43.5,96,91,85,30.26,30.07,3,2,9,0.24
2013-1-8,50.8,47.4,39.0,49.6,46.3,38.5,98,96,94,30.20,30.05,4,1,6,0.25
2013-1-9,42.1,38.0,34.1,40.9,37.1,33.3,99,97,90,30.19,30.07,2,0,4,0.01
2013-1-10,36.5,33.8,30.6,36.2,33.5,30.4,99,99,98,30.07,29.94,1,0,2,0.01
2013-1-11,39.0,34.1,30.0,38.8,33.8,29.8,100,99,98,30.05,29.94,1,0,3,0.02
2013-1-12,39.9,35.4,29.1,36.1,33.4,28.0,99,92,79,30.10,29.91,1,0,4,0.00
2013-1-13,34.1,31.4,27.5,32.6,30.4,26.5,97,96,93,30.16,30.03,1,0,1,0.01
2013-1-14,38.8,35.1,33.1,35.9,33.2,30.5,99,93,82,30.03,29.72,5,1,9,0.26
2013-1-15,37.1,31.5,25.1,34.9,29.6,23.3,97,93,84,29.88,29.79,1,0,4,0.00
2013-1-16,33.7,29.0,23.7,28.4,25.4,22.1,94,87,78,29.99,29.84,1,0,2,0.00
2013-1-17,36.5,33.8,31.1,31.6,28.4,25.1,87,80,73,30.00,29.80,3,1,7,0.00
2013-1-18,35.0,32.8,30.7,30.0,26.2,23.7,82,77,70,29.79,29.49,3,2,6,0.00
2013-1-19,34.1,32.7,30.5,31.8,29.3,26.6,94,87,78,29.66,29.51,2,1,3,0.00
2013-1-20,34.6,33.1,30.5,30.8,29.2,27.9,94,85,81,29.64,29.43,2,1,6,0.00
2013-1-21,34.2,32.9,30.6,32.1,30.7,27.3,94,92,86,29.44,29.34,2,1,4,0.00
2013-1-22,36.5,31.9,28.2,33.3,29.4,26.2,94,90,86,29.81,29.45,1,0,2,0.02
2013-1-23,36.3,33.2,30.7,32.2,30.6,28.7,93,90,84,29.92,29.81,2,0,3,0.03
2013-1-24,39.6,33.8,31.4,31.0,29.3,26.6,92,84,69,30.09,29.92,2,0,5,0.05
2013-1-25,34.4,32.4,30.2,32.9,29.1,24.8,96,88,77,30.04,29.44,3,1,6,0.00
2013-1-26,42.9,39.2,33.0,42.6,36.8,32.1,99,91,79,29.66,29.12,6,2,7,1.35
2013-1-27,48.0,42.8,38.7,46.8,38.5,34.3,99,85,77,29.35,28.92,12,7,17,0.94
2013-1-28,48.3,43.5,39.4,43.3,38.5,34.1,95,83,75,29.48,29.07,14,7,22,0.76
2013-1-29,51.6,47.9,45.6,50.6,43.8,40.1,97,86,77,29.45,29.13,14,7,20,0.44
2013-1-30,46.5,44.2,42.2,42.7,39.0,37.1,94,82,75,29.78,29.23,14,9,20,0.14
2013-1-31,46.0,44.5,40.2,41.5,38.3,35.9,94,79,73,29.77,29.39,14,8,28,0.28
2013-2-1,43.9,41.2,35.5,39.5,36.3,30.2,92,83,78,29.77,29.40,9,4,16,0.04
2013-2-2,40.2,33.3,28.5,31.4,28.2,24.9,92,82,61,30.22,29.78,4,1,7,0.00
2013-2-3,49.0,44.5,32.7,46.7,41.5,28.9,96,89,79,30.13,29.66,11,5,17,0.12
2013-2-4,49.1,41.8,36.5,47.1,36.6,30.3,94,82,73,29.72,29.45,14,10,28,0.13
2013-2-5,40.9,37.2,32.8,39.5,33.9,29.4,97,88,78,29.48,29.13,11,6,17,0.23
2013-2-6,40.6,37.6,32.4,36.6,30.8,27.8,91,77,65,30.14,29.49,7,3,12,0.05
2013-2-7,39.3,33.7,28.3,35.5,31.3,26.3,96,91,83,30.15,29.98,2,0,5,0.00
2013-2-8,43.0,37.7,34.3,37.2,34.5,33.1,97,89,69,30.18,30.08,4,1,8,0.05
2013-2-9,39.5,37.4,35.1,38.7,36.5,33.9,98,97,94,30.15,29.79,1,0,1,0.13
2013-2-10,37.5,36.0,33.7,37.0,35.1,32.4,98,97,95,29.79,29.32,2,1,5,0.22
2013-2-11,38.6,35.0,33.3,33.4,31.2,28.6,96,86,76,29.89,29.38,3,1,6,0.06
2013-2-12,38.9,34.4,31.4,31.1,29.5,27.7,90,82,72,30.10,29.89,2,0,3,0.00
2013-2-13,39.8,34.2,31.0,38.5,31.3,27.3,96,89,81,30.10,29.65,5,2,12,0.78
2013-2-14,44.8,42.3,38.1,41.9,40.0,37.3,99,92,84,29.90,29.65,8,3,15,0.02
2013-2-15,46.7,41.7,34.5,40.8,38.5,33.2,96,89,74,30.15,29.89,7,2,10,0.00
2013-2-16,44.7,41.7,37.6,41.3,39.4,36.5,96,92,87,30.16,30.13,2,1,7,0.00
2013-2-17,48.2,41.1,35.5,40.2,36.1,30.5,94,83,69,30.15,30.07,2,0,5,0.00
2013-2-18,47.1,36.5,29.5,36.0,31.7,27.7,96,83,60,30.14,30.08,3,0,4,0.00
2013-2-19,49.1,35.1,25.0,38.6,31.0,24.0,97,86,58,30.15,30.07,2,0,3,0.00
2013-2-20,43.7,34.9,28.1,36.9,31.2,25.0,96,86,73,30.30,30.13,3,1,6,0.01
2013-2-21,40.2,32.5,26.9,28.9,25.8,23.1,90,77,60,30.31,30.26,2,1,8,0.00
2013-2-22,37.2,33.4,31.1,28.7,26.2,23.3,81,75,69,30.28,30.24,2,0,3,0.00
2013-2-23,40.0,34.3,31.2,31.6,28.7,25.8,92,80,70,30.35,30.23,2,0,6,0.00
2013-2-24,40.4,34.6,27.2,33.3,30.5,25.4,94,85,71,30.45,30.34,2,0,6,0.00
2013-2-25,46.2,37.6,30.7,36.2,33.0,28.7,94,84,65,30.58,30.45,2,1,6,0.00
2013-2-26,47.7,37.4,29.1,38.5,33.0,27.3,94,84,70,30.68,30.56,2,0,4,0.01
2013-2-27,51.2,33.9,23.8,37.3,28.0,22.5,97,81,51,30.69,30.58,3,0,4,0.00
2013-2-28,53.7,37.9,24.0,39.7,30.5,21.8,92,77,41,30.60,30.48,2,0,5,0.00
2013-3-1,48.5,40.8,28.2,36.4,33.0,26.2,92,74,58,30.51,30.46,2,0,3,0.00
2013-3-2,46.9,35.5,26.6,41.4,32.9,25.3,96,91,79,30.48,30.28,3,0,6,0.01
2013-3-3,49.4,38.8,29.5,42.5,35.1,28.6,97,88,67,30.30,30.11,2,0,5,0.00
2013-3-4,47.1,38.5,30.8,36.2,32.8,28.7,94,80,62,30.11,29.75,2,0,4,0.00
2013-3-5,53.9,39.1,27.5,38.6,32.3,25.7,94,78,51,29.75,29.61,1,0,2,0.00
2013-3-6,46.5,40.1,32.8,40.7,36.7,30.4,95,88,80,29.65,29.57,2,1,6,0.00
2013-3-7,49.9,44.3,40.1,46.1,40.2,38.1,93,85,79,29.57,29.43,3,1,7,0.05
2013-3-8,43.3,41.0,39.5,40.0,38.7,37.3,95,92,87,29.62,29.46,4,2,8,0.04
2013-3-9,39.5,37.0,34.7,37.4,35.7,31.5,96,95,88,29.79,29.61,2,1,4,0.30
2013-3-10,36.3,33.1,27.1,31.3,28.3,21.3,88,82,75,30.01,29.80,3,1,4,0.01
2013-3-11,35.2,28.7,23.4,25.0,21.3,18.5,89,74,51,30.08,30.01,3,1,9,0.00
2013-3-12,40.5,33.1,24.4,30.8,25.0,19.0,86,72,56,30.08,29.90,4,1,6,0.00
2013-3-13,43.0,34.3,26.0,29.6,26.9,21.7,91,75,55,30.01,29.87,3,1,6,0.00
2013-3-14,40.6,33.6,22.8,39.0,31.0,20.2,96,90,75,30.02,29.69,3,0,6,0.09
2013-3-15,45.4,39.9,34.6,43.1,37.7,33.2,96,92,80,29.69,29.38,4,1,6,0.61
2013-3-16,42.6,37.1,30.3,40.2,35.2,29.0,97,93,78,29.38,29.22,3,0,4,0.08
2013-3-17,43.4,36.2,32.0,40.0,34.5,30.9,98,94,80,29.22,29.14,2,0,5,0.16
2013-3-18,41.2,35.2,33.1,38.9,33.0,29.6,98,92,81,29.42,29.20,3,1,5,0.27
2013-3-19,41.2,36.1,32.6,39.0,34.4,31.2,97,94,87,29.59,29.42,2,0,5,0.14
2013-3-20,39.7,35.8,31.2,34.8,32.0,27.5,91,86,78,30.01,29.59,2,1,5,0.00
2013-3-21,42.5,33.9,28.2,31.1,27.3,24.3,88,77,62,30.05,29.93,4,2,7,0.00
2013-3-22,34.8,32.5,31.4,30.6,29.9,27.1,96,90,75,29.94,29.83,5,3,10,0.00
2013-3-23,33.7,32.1,31.6,30.5,28.9,26.6,95,88,81,30.07,29.91,5,3,12,0.00
2013-3-24,38.1,33.6,30.9,28.5,26.2,24.6,86,74,64,30.18,30.04,6,4,13,0.10
2013-3-25,38.0,33.6,30.6,29.8,27.3,25.4,86,78,69,30.19,30.13,4,2,9,0.02
2013-3-26,41.4,33.4,30.1,30.5,27.5,26.0,90,79,61,30.17,30.08,3,1,6,0.00
2013-3-27,40.8,33.6,29.4,30.8,27.1,24.1,91,78,59,30.09,30.00,3,1,6,0.01
2013-3-28,43.5,33.7,26.0,30.5,26.2,22.6,88,75,52,30.05,30.00,3,1,6,0.00
2013-3-29,44.7,33.9,25.8,31.1,27.0,22.8,92,77,53,30.01,29.88,3,1,6,0.00
2013-3-30,43.7,32.3,23.1,31.8,24.7,21.1,95,75,44,30.02,29.93,2,0,4,0.00
2013-3-31,43.1,33.1,22.0,28.1,23.7,18.7,88,70,52,30.03,29.95,2,0,4,0.00
2013-4-1,46.9,36.8,31.6,30.2,26.1,23.6,77,66,50,30.03,29.96,3,2,8,0.00
2013-4-2,46.7,36.6,28.1,34.7,27.6,23.0,85,71,52,30.21,30.03,2,1,6,0.00
2013-4-3,51.4,37.4,26.4,31.0,26.2,22.8,93,68,34,30.26,30.20,3,1,6,0.00
2013-4-4,46.3,36.5,26.9,34.3,28.6,24.1,95,75,47,30.25,30.16,2,1,10,0.00
2013-4-5,46.9,39.2,34.1,33.1,30.6,26.5,91,72,54,30.26,30.15,3,1,12,0.00
2013-4-6,49.5,36.7,24.9,33.9,28.4,22.5,92,74,48,30.30,30.23,4,1,5,0.00
2013-4-7,52.8,39.1,28.2,35.6,30.3,25.5,93,74,35,30.24,29.93,3,0,3,0.00
2013-4-8,47.4,39.3,34.3,35.2,32.7,28.9,87,77,59,29.94,29.66,2,1,7,0.00
2013-4-9,50.1,39.6,33.1,35.2,31.1,27.5,86,72,55,29.67,29.57,3,1,6,0.00
2013-4-10,55.4,41.7,30.4,35.9,31.8,27.6,94,71,39,29.68,29.55,2,0,5,0.00
2013-4-11,49.2,41.9,37.1,38.0,36.1,33.9,89,80,63,29.54,29.37,2,0,5,0.00
2013-4-12,56.3,43.8,38.3,45.4,40.2,36.2,96,88,61,29.65,29.34,2,0,3,0.46
2013-4-13,58.0,45.8,34.2,48.9,42.1,33.4,98,88,53,29.76,29.56,3,1,9,0.07
2013-4-14,54.0,52.3,48.9,52.5,49.4,46.3,97,90,79,29.64,29.50,8,4,19,1.60
2013-4-15,53.9,50.2,47.5,47.2,45.9,44.4,95,85,71,29.84,29.64,9,4,15,0.20
2013-4-16,54.3,50.1,46.9,45.7,41.4,35.8,92,73,56,29.91,29.54,12,6,19,0.01
2013-4-17,53.2,48.2,40.9,50.7,45.1,37.1,97,89,69,29.91,29.30,11,3,19,0.75
2013-4-18,51.2,46.0,43.7,44.6,42.0,39.4,96,86,68,29.93,29.27,12,8,23,1.10
2013-4-19,53.6,45.1,36.2,43.1,39.1,33.3,95,80,56,30.48,29.93,5,2,8,0.05
2013-4-20,55.9,45.4,34.2,41.3,36.9,31.8,94,74,52,30.49,30.25,5,2,9,0.00
2013-4-21,50.4,45.2,41.8,43.8,40.9,37.7,94,85,75,30.25,29.91,6,2,10,0.18
2013-4-22,55.6,47.7,41.7,49.5,43.1,37.9,95,84,73,29.93,29.74,7,3,15,0.02
2013-4-23,53.6,49.9,46.1,45.2,42.8,40.4,83,77,65,30.14,29.83,8,5,13,0.00
2013-4-24,53.6,50.3,43.9,50.5,46.3,39.4,96,86,73,30.25,30.00,9,3,16,0.20
2013-4-25,50.5,44.7,41.7,45.1,42.2,38.4,97,91,73,30.25,30.06,6,2,9,0.43
2013-4-26,46.8,41.2,33.7,40.8,37.2,32.7,97,86,67,30.08,29.86,7,3,16,0.20
2013-4-27,51.7,42.8,35.5,40.0,35.1,29.6,97,76,43,30.11,29.97,5,1,7,0.03
2013-4-28,48.0,43.9,37.2,45.0,39.2,33.0,96,84,68,30.05,29.70,8,4,12,0.13
2013-4-29,52.2,45.2,41.4,42.0,38.4,35.7,92,78,56,30.13,29.73,11,6,17,0.02
2013-4-30,57.2,46.2,35.5,40.8,36.2,27.6,92,70,33,30.31,30.13,6,2,9,0.00
2013-5-1,54.2,45.2,34.6,45.0,37.2,28.8,91,74,53,30.28,30.20,7,2,13,0.00
2013-5-2,59.5,46.2,30.1,40.1,34.3,26.3,95,67,32,30.28,30.10,4,1,7,0.00
2013-5-3,53.7,49.9,48.2,48.1,45.8,39.8,94,86,67,30.10,29.78,9,3,19,0.35
2013-5-4,52.2,47.6,42.1,46.8,42.4,38.7,97,83,61,29.97,29.76,8,4,15,0.12
2013-5-5,53.7,52.2,49.2,50.4,47.8,44.3,93,85,77,30.10,29.96,7,3,17,0.02
2013-5-6,63.3,52.9,43.8,50.0,44.3,37.2,91,74,41,30.09,30.03,4,2,8,0.00
2013-5-7,75.1,57.6,38.7,49.8,43.4,36.1,92,63,37,30.07,29.83,3,1,5,0.00
2013-5-8,60.6,54.9,48.0,54.0,47.3,41.6,93,76,59,29.83,29.50,5,2,11,0.35
2013-5-9,49.4,47.0,45.4,46.2,42.7,38.2,96,85,74,29.60,29.27,4,2,10,0.78
2013-5-10,53.1,47.8,41.6,48.8,44.3,38.2,97,88,64,29.71,29.34,6,3,10,0.17
2013-5-11,51.5,45.7,42.9,45.0,42.3,39.3,95,88,65,29.78,29.59,8,3,14,0.44
2013-5-12,52.8,47.8,44.4,49.0,44.1,40.5,94,87,75,29.85,29.66,8,4,14,0.15
2013-5-13,49.4,44.8,41.1,42.3,37.9,35.3,89,77,62,29.70,29.58,8,6,17,0.14
2013-5-14,55.2,47.0,41.1,39.7,36.7,31.5,81,68,44,29.58,29.40,9,4,15,0.00
2013-5-15,51.6,45.1,42.5,44.4,39.6,35.9,88,81,72,29.46,29.27,6,2,10,0.17
2013-5-16,56.2,47.1,37.9,49.2,40.6,35.8,93,79,55,29.64,29.46,4,1,6,0.06
2013-5-17,59.8,49.5,38.7,47.6,41.9,36.9,94,76,47,29.84,29.64,4,1,7,0.02
2013-5-18,53.4,48.5,45.3,52.2,47.5,43.5,98,96,84,29.84,29.67,4,1,5,1.49
2013-5-19,56.9,52.2,48.7,52.5,50.3,48.0,98,93,83,29.98,29.79,3,1,7,0.00
2013-5-20,61.3,56.2,52.1,58.7,54.7,51.3,98,95,91,29.99,29.94,3,1,5,0.35
2013-5-21,60.8,55.7,49.9,53.1,50.1,45.3,96,82,62,30.08,29.99,5,2,8,0.00
2013-5-22,55.8,49.9,44.0,45.3,40.1,32.8,93,71,44,30.10,30.02,8,4,17,0.00
2013-5-23,47.7,43.4,39.3,39.7,36.7,33.8,86,77,59,30.02,29.89,7,4,19,0.01
2013-5-24,55.1,46.1,40.4,44.0,39.3,34.8,92,78,58,30.20,29.87,6,2,12,0.14
2013-5-25,58.7,47.8,33.8,43.9,38.6,32.5,98,73,46,30.21,30.15,5,2,10,0.00
2013-5-26,63.3,50.8,35.1,48.7,41.0,33.3,94,71,53,30.17,29.85,4,1,7,0.00
2013-5-27,50.3,47.5,41.8,47.3,43.7,35.1,94,87,64,29.84,29.50,4,1,11,0.93
2013-5-28,56.6,49.8,45.6,50.4,46.9,41.1,96,90,71,29.68,29.53,4,0,5,0.25
2013-5-29,58.9,52.2,42.3,54.1,48.5,39.3,94,87,78,29.88,29.68,4,1,12,0.00
2013-5-30,66.6,57.9,48.9,54.6,50.4,46.1,92,77,63,30.07,29.86,4,1,9,0.02
2013-5-31,64.7,53.7,43.3,55.1,47.6,40.0,98,81,51,30.19,30.07,6,2,10,0.00
2013-6-1,60.1,49.9,41.5,48.0,42.5,39.1,93,76,56,30.33,30.19,6,2,11,0.00
2013-6-2,58.4,50.1,38.9,47.7,43.5,37.0,95,79,60,30.48,30.33,4,2,8,0.00
2013-6-3,64.2,53.5,40.6,54.8,48.8,39.4,97,85,70,30.51,30.46,3,1,4,0.00
2013-6-4,76.1,60.6,45.5,54.9,49.6,44.4,98,71,42,30.48,30.29,2,1,4,0.00
2013-6-5,72.6,58.6,43.8,55.9,49.5,42.1,95,74,50,30.29,30.11,3,0,5,0.00
2013-6-6,74.4,61.0,50.1,58.7,53.1,48.0,94,77,46,30.25,30.16,4,1,7,0.00
2013-6-7,73.2,60.6,48.0,56.6,51.0,45.9,97,74,39,30.28,30.22,5,1,8,0.00
2013-6-8,75.0,59.7,46.5,55.0,48.6,39.1,86,68,40,30.26,30.09,3,1,6,0.00
2013-6-9,68.8,58.1,47.3,56.2,49.8,40.1,85,74,59,30.12,29.95,3,0,5,0.00
2013-6-10,64.8,55.8,46.5,55.3,49.0,38.9,85,78,66,29.99,29.88,3,0,5,0.00
2013-6-11,60.9,54.4,44.2,55.7,49.2,39.2,86,83,74,29.89,29.73,2,0,6,0.00
2013-6-12,61.2,56.4,53.7,54.3,49.5,43.1,86,78,61,29.73,29.58,4,1,7,0.13
2013-6-13,60.1,54.9,51.2,52.1,47.2,42.9,87,75,63,29.85,29.55,7,2,16,0.13
2013-6-14,61.6,54.3,47.5,53.5,48.7,42.9,87,82,69,29.86,29.56,4,1,9,0.25
2013-6-15,55.9,51.5,48.4,48.0,45.7,42.2,87,80,67,29.64,29.47,5,2,10,0.23
2013-6-16,65.4,56.2,48.7,52.2,48.2,42.2,87,75,55,29.99,29.65,3,1,6,0.00
2013-6-17,69.8,57.8,48.1,56.9,51.2,43.8,87,79,55,30.03,29.98,1,0,2,0.05
2013-6-18,75.8,63.1,53.9,57.8,52.6,49.4,86,70,45,30.03,29.90,5,1,8,0.00
2013-6-19,64.6,58.5,50.2,54.5,49.6,45.8,85,73,56,30.03,29.94,5,2,9,0.00
2013-6-20,72.6,57.8,44.2,59.2,48.9,37.0,85,73,42,30.03,29.78,2,0,3,0.06
2013-6-21,66.8,59.4,54.4,57.8,46.0,32.3,85,63,40,29.78,29.66,5,1,9,0.06
2013-6-22,56.5,53.0,50.1,51.3,46.9,40.5,86,80,59,29.66,29.37,5,2,10,0.61
2013-6-23,56.7,53.4,50.4,52.3,47.2,39.3,86,80,61,29.96,29.43,7,4,12,0.24
2013-6-24,58.1,53.1,46.4,48.6,46.0,42.4,86,77,62,30.27,29.96,6,3,8,0.00
2013-6-25,62.6,53.8,40.4,50.8,44.0,27.4,86,70,51,30.42,30.27,3,1,5,0.00
2013-6-26,62.9,56.0,49.2,50.3,47.7,43.5,86,74,57,30.44,30.39,5,2,9,0.00
2013-6-27,55.9,53.0,48.7,50.5,45.2,35.9,86,76,47,30.41,30.16,3,1,8,0.19
2013-6-28,58.2,55.6,51.0,52.9,41.6,33.5,87,61,42,30.16,29.98,6,3,15,0.78
2013-6-29,59.9,55.1,50.5,55.2,49.6,46.7,87,82,69,30.18,30.09,5,2,12,0.00
2013-6-30,60.1,57.2,53.3,54.9,51.7,45.2,86,82,76,30.16,29.91,8,3,11,0.07
2013-7-1,61.6,55.1,51.0,48.3,46.6,44.6,85,74,55,29.94,29.90,6,3,12,0.00
2013-7-2,58.4,54.7,50.8,52.0,49.2,46.8,86,82,71,29.92,29.48,3,1,8,0.10
2013-7-3,61.7,57.9,55.4,54.8,50.6,42.4,87,77,60,29.88,29.47,5,2,8,0.01
2013-7-4,61.6,58.6,56.3,54.8,51.6,46.6,87,78,66,30.19,29.82,6,2,9,0.11
2013-7-5,71.1,61.0,52.2,56.7,52.3,48.1,87,74,53,30.38,30.19,4,1,8,0.00
2013-7-6,74.5,61.9,50.6,58.4,51.0,40.3,86,69,30,30.44,30.33,4,1,7,0.00
2013-7-7,73.7,63.6,51.6,62.4,56.2,46.9,85,78,64,30.56,30.44,4,1,7,0.00
2013-7-8,84.6,68.1,54.6,66.1,57.4,41.7,84,69,40,30.58,30.47,5,1,7,0.00
2013-7-9,79.0,69.2,56.3,66.0,57.6,34.8,84,67,39,30.48,30.30,4,1,7,0.00
2013-7-10,75.0,67.4,58.2,64.5,59.5,53.4,84,76,60,30.33,30.28,3,1,4,0.00
2013-7-11,77.7,64.7,53.5,64.8,56.3,45.5,85,75,52,30.33,30.23,3,1,5,0.00
2013-7-12,78.2,67.6,56.5,65.4,56.1,36.2,84,67,41,30.27,30.20,3,1,6,0.00
2013-7-13,76.8,67.3,58.7,64.4,57.3,45.7,84,71,59,30.26,30.23,5,1,8,0.00
2013-7-14,70.7,62.3,53.9,57.0,49.4,41.3,85,64,38,30.26,30.20,4,2,9,0.00
2013-7-15,68.0,59.1,48.3,58.0,51.1,34.6,85,75,57,30.24,30.20,6,2,8,0.00
2013-7-16,72.6,64.4,53.7,61.8,57.2,48.1,85,78,65,30.25,30.19,5,1,8,0.00
2013-7-17,74.8,65.3,53.0,59.7,52.6,41.9,85,65,45,30.33,30.25,4,1,8,0.00
2013-7-18,81.1,68.1,51.6,65.1,57.1,42.8,84,69,55,30.35,30.30,4,1,8,0.00
2013-7-19,89.1,73.2,58.4,68.7,59.3,44.8,83,64,40,30.33,30.25,2,1,5,0.00
2013-7-20,78.7,67.2,57.4,64.4,58.3,51.7,83,74,57,30.30,30.21,3,1,6,0.00
2013-7-21,77.3,66.1,57.7,60.4,56.8,52.6,84,73,53,30.24,30.07,3,1,5,0.00
2013-7-22,85.8,70.4,59.4,66.5,60.7,54.6,84,73,49,30.09,29.92,2,1,5,0.00
2013-7-23,73.2,65.6,61.7,66.5,57.7,46.6,84,76,56,29.93,29.83,3,1,6,0.23
2013-7-24,76.1,65.9,56.2,63.0,52.1,32.5,84,62,36,29.89,29.85,3,0,6,0.01
2013-7-25,74.4,65.6,59.7,64.0,55.8,39.4,84,71,42,29.86,29.77,3,0,5,0.34
2013-7-26,74.5,64.7,54.8,58.6,54.9,46.7,85,72,49,29.85,29.82,4,1,8,0.00
2013-7-27,77.5,63.1,50.0,62.3,52.8,41.5,85,70,48,29.85,29.60,5,1,6,0.33
2013-7-28,70.7,62.0,56.1,59.8,47.7,33.9,85,61,41,29.64,29.51,5,1,12,1.90
2013-7-29,68.6,62.0,58.6,61.4,50.2,34.7,85,67,39,29.77,29.59,4,1,6,1.14
2013-7-30,68.9,60.6,55.4,58.3,51.0,38.0,86,71,51,29.82,29.76,5,1,11,0.26
2013-7-31,69.2,60.4,55.1,58.0,50.7,35.1,86,71,38,29.88,29.75,3,1,5,1.02
2013-8-1,74.4,65.4,62.6,68.9,51.6,40.1,85,62,44,29.75,29.61,2,1,7,0.24
2013-8-2,70.8,65.7,61.0,60.6,56.8,52.1,86,73,59,29.66,29.57,5,2,17,0.13
2013-8-3,65.0,59.9,56.4,55.2,53.3,51.0,86,79,62,29.91,29.62,6,2,9,0.31
2013-8-4,71.0,61.1,55.4,58.7,52.1,39.9,86,72,54,29.93,29.84,3,1,6,1.07
2013-8-5,62.5,60.0,55.8,58.3,46.7,37.7,87,63,43,29.88,29.71,4,1,6,0.83
2013-8-6,66.1,57.2,48.6,53.9,49.8,44.0,88,77,60,29.98,29.88,3,1,5,0.00
2013-8-7,70.6,56.8,42.9,56.2,47.7,32.5,87,72,57,30.06,29.96,3,0,5,0.00
2013-8-8,70.8,59.2,46.1,57.8,48.8,30.6,86,69,47,30.06,29.95,3,1,7,0.16
2013-8-9,63.0,57.9,52.8,55.4,50.1,39.7,87,75,53,30.14,29.89,7,2,13,0.24
2013-8-10,63.4,57.5,53.5,54.1,51.3,49.1,87,80,64,30.14,30.00,4,1,8,0.06
2013-8-11,61.4,56.4,53.9,53.5,51.2,48.9,87,83,70,30.00,29.92,6,2,9,0.17
2013-8-12,61.5,56.1,52.4,54.6,50.3,46.2,87,81,67,30.06,29.89,7,4,13,0.20
2013-8-13,64.3,57.1,52.3,53.6,50.3,46.8,87,79,61,30.17,30.05,5,2,7,0.03
2013-8-14,68.6,60.4,53.1,59.2,53.6,46.8,87,79,63,30.16,29.97,3,0,5,0.03
2013-8-15,66.1,62.2,59.9,61.7,53.0,45.1,87,72,56,29.97,29.76,3,1,7,0.94
2013-8-16,64.6,59.7,54.5,56.8,50.0,36.8,88,72,48,29.91,29.75,4,1,7,0.24
2013-8-17,64.8,60.0,57.4,60.4,54.5,48.0,87,82,61,29.88,29.46,6,2,12,0.51
2013-8-18,62.2,56.6,51.6,53.9,50.8,47.2,88,81,64,29.84,29.52,6,3,16,0.06
2013-8-19,64.7,57.4,51.0,54.6,51.1,44.5,88,80,64,30.21,29.84,5,2,9,0.00
2013-8-20,66.0,59.4,52.9,57.6,52.5,45.7,87,78,67,30.28,30.20,3,1,9,0.00
2013-8-21,62.8,60.6,58.6,58.5,54.9,47.4,87,82,64,30.20,30.08,3,1,8,0.15
2013-8-22,75.8,63.2,56.8,64.5,54.5,42.2,87,74,56,30.10,29.99,2,0,2,0.00
2013-8-23,69.6,63.1,56.1,62.7,56.3,46.6,87,79,64,29.99,29.87,2,0,6,0.01
2013-8-24,63.9,58.4,48.9,57.1,51.2,44.7,88,77,65,29.96,29.88,4,1,6,0.02
2013-8-25,77.8,60.5,47.4,64.3,52.8,38.7,88,76,60,30.13,29.96,2,0,3,0.00
2013-8-26,76.6,61.4,50.5,63.5,53.3,39.1,87,75,52,30.16,30.08,4,1,6,0.01
2013-8-27,67.4,58.6,48.9,59.7,50.7,33.6,87,75,49,30.17,30.07,4,1,6,0.01
2013-8-28,65.4,58.3,52.5,58.2,51.8,47.0,87,79,68,30.20,30.13,5,1,6,0.00
2013-8-29,64.3,60.1,53.3,58.9,55.8,49.3,88,86,81,30.13,30.04,3,1,7,0.00
2013-8-30,64.2,59.7,51.0,59.9,55.5,45.7,88,86,79,30.14,29.92,7,2,13,0.04
2013-8-31,60.4,53.4,44.1,50.7,46.9,39.9,89,79,56,30.35,30.14,7,3,11,0.02
2013-9-1,59.2,56.8,54.5,52.9,50.4,48.4,83,79,75,30.35,30.24,7,4,15,0.00
2013-9-2,65.0,61.3,57.1,60.7,57.0,51.0,88,86,80,30.30,30.21,6,2,11,0.00
2013-9-3,70.5,62.8,54.6,60.0,56.8,50.9,88,81,65,30.30,30.22,5,1,7,0.00
2013-9-4,77.4,60.3,50.1,58.2,50.1,40.0,88,72,31,30.22,29.94,2,0,5,0.01
2013-9-5,61.8,56.1,52.2,56.1,50.2,45.6,87,80,72,29.94,29.86,4,1,7,0.00
2013-9-6,53.4,50.5,47.3,49.2,46.4,42.2,88,86,82,29.86,29.76,4,1,11,0.73
2013-9-7,56.0,50.2,47.0,50.6,44.7,38.4,88,81,69,29.93,29.72,3,1,6,0.40
2013-9-8,58.8,51.2,45.9,51.2,46.1,39.6,89,83,72,29.97,29.93,2,0,4,0.06
2013-9-9,58.8,51.0,45.5,52.8,43.3,33.5,88,75,55,30.15,29.94,4,0,8,0.31
2013-9-10,61.1,52.5,45.7,52.5,44.5,32.1,88,75,56,30.24,30.14,5,1,9,0.01
2013-9-11,56.7,53.2,48.3,52.4,46.0,38.9,88,77,66,30.24,30.08,2,0,3,0.20
2013-9-12,66.6,58.9,54.6,58.9,49.9,40.0,88,72,58,30.09,29.94,5,1,8,0.20
2013-9-13,56.7,52.3,49.0,51.3,47.3,39.4,89,83,69,30.06,29.99,4,1,7,0.03
2013-9-14,59.1,50.3,44.5,48.3,41.6,31.3,89,73,57,30.07,29.99,5,1,10,0.01
2013-9-15,58.7,51.5,43.8,52.7,45.7,37.3,89,81,66,30.00,29.31,13,4,22,1.25
2013-9-16,51.4,46.8,43.1,47.5,43.2,38.5,89,87,82,29.46,29.37,10,6,15,0.82
2013-9-17,48.9,47.7,44.7,45.5,43.3,34.1,89,85,65,29.46,29.36,7,3,13,0.58
2013-9-18,53.7,48.9,44.2,48.5,42.4,31.1,89,79,57,29.79,29.44,8,3,16,0.11
2013-9-19,58.2,51.4,46.5,52.5,46.7,41.6,88,84,68,29.81,29.56,8,3,15,0.17
2013-9-20,56.4,51.0,44.1,49.9,45.2,35.6,88,81,70,30.11,29.79,4,1,8,0.02
2013-9-21,63.4,55.4,45.2,58.7,50.3,36.7,88,83,69,30.18,30.09,2,0,5,0.00
2013-9-22,64.5,60.8,52.1,58.0,55.9,46.1,87,84,76,30.32,30.18,4,2,9,0.00
2013-9-23,65.9,56.2,46.3,60.6,48.5,34.8,87,75,53,30.30,30.10,1,0,2,0.00
2013-9-24,68.7,59.0,54.3,61.5,52.2,44.4,87,78,66,30.10,29.92,2,0,3,0.00
2013-9-25,63.8,55.7,51.0,58.5,46.9,36.6,88,73,54,29.97,29.85,3,1,5,0.00
2013-9-26,62.5,54.7,50.8,52.7,49.2,45.6,88,82,68,30.07,29.97,2,0,5,0.00
2013-9-27,67.9,57.2,49.0,56.9,51.4,43.7,88,81,67,30.04,29.92,2,0,3,0.01
2013-9-28,70.6,54.6,45.2,54.5,45.7,36.7,88,73,49,29.92,29.81,1,0,4,0.00
2013-9-29,63.1,53.2,44.3,52.5,47.3,41.0,88,81,65,29.87,29.80,4,2,10,0.00
2013-9-30,62.2,54.5,49.9,54.2,49.5,45.8,88,83,75,29.84,29.75,3,2,7,0.00
2013-10-1,60.1,54.1,48.0,52.4,48.6,44.3,88,82,73,29.84,29.78,3,1,5,0.00
2013-10-2,60.0,56.7,54.6,55.9,51.1,48.3,88,82,71,29.81,29.75,2,0,6,0.16
2013-10-3,65.3,60.9,59.0,60.7,53.9,45.3,87,78,58,29.77,29.53,3,1,6,0.61
2013-10-4,61.6,58.8,54.2,56.7,50.6,45.0,88,75,60,29.86,29.56,5,1,8,0.38
2013-10-5,62.9,55.4,49.9,54.1,50.0,43.8,89,82,68,30.16,29.86,4,2,8,0.00
2013-10-6,59.6,57.6,53.9,55.7,53.0,49.6,88,85,74,30.16,30.12,3,2,9,0.07
2013-10-7,61.4,59.9,58.1,57.4,52.7,45.4,88,77,63,30.14,30.07,4,1,6,0.17
2013-10-8,59.4,56.5,52.5,55.8,51.6,46.5,88,84,68,30.20,30.05,6,3,13,0.24
2013-10-9,53.1,49.4,43.3,48.7,44.0,37.9,89,82,68,30.18,29.99,8,4,16,0.05
2013-10-10,49.4,44.2,38.5,40.5,37.3,34.1,87,77,68,30.34,30.12,4,1,8,0.00
2013-10-11,55.5,49.3,43.8,49.1,44.3,38.5,87,83,75,30.41,30.31,4,2,7,0.00
2013-10-12,56.3,51.6,47.8,50.9,47.1,42.6,87,85,80,30.38,30.17,4,2,6,0.00
2013-10-13,54.2,51.0,48.7,49.1,45.9,42.1,88,83,73,30.17,29.92,4,1,9,0.00
2013-10-14,52.4,49.9,47.2,47.4,45.6,43.5,89,85,79,29.92,29.83,5,2,9,0.06
2013-10-15,55.8,49.1,41.3,52.0,45.2,36.8,89,86,79,29.97,29.84,2,0,3,0.02
2013-10-16,51.6,45.9,37.9,46.9,40.6,30.5,89,82,64,29.97,29.46,6,1,10,0.63
2013-10-17,57.7,49.8,42.0,50.3,44.8,33.6,89,83,71,29.97,29.63,5,1,9,0.00
2013-10-18,56.9,50.5,42.2,52.7,43.3,32.7,88,77,62,29.98,29.66,3,1,10,0.14
2013-10-19,59.4,54.7,52.8,55.0,48.5,43.2,88,80,69,29.67,29.47,3,0,8,0.46
2013-10-20,56.1,53.5,51.0,52.2,46.1,38.2,88,77,61,29.53,29.43,3,1,6,0.64
2013-10-21,59.9,54.3,49.7,56.2,45.7,38.8,88,73,56,29.55,29.33,4,1,6,0.63
2013-10-22,59.3,57.3,55.3,54.8,51.6,47.0,88,81,70,29.33,29.12,2,1,7,1.30
2013-10-23,57.2,51.4,45.8,53.7,46.4,42.3,89,83,68,29.67,29.02,8,3,18,0.58
2013-10-24,57.3,50.2,43.9,49.4,44.9,40.3,89,82,66,29.89,29.67,6,2,11,0.00
2013-10-25,59.8,54.7,51.7,54.9,49.6,42.9,88,83,67,29.80,29.36,4,1,12,0.61
2013-10-26,56.5,52.8,47.3,53.0,47.6,42.4,89,82,75,29.47,29.24,5,2,8,0.91
2013-10-27,54.2,50.9,46.2,49.1,46.6,41.2,89,85,78,29.24,28.99,11,4,20,0.97
2013-10-28,51.4,48.9,45.9,47.0,45.1,42.5,89,86,81,29.38,28.91,6,3,12,0.36
2013-10-29,48.4,46.5,43.2,44.7,43.0,40.2,89,88,84,29.93,29.39,6,4,12,0.10
2013-10-30,53.7,48.0,41.3,49.4,43.8,37.7,89,85,70,29.98,29.72,7,2,12,0.61
2013-10-31,53.3,50.2,45.0,47.3,44.7,42.0,89,82,74,29.91,29.70,8,3,18,0.10
2013-11-1,51.6,46.7,37.6,43.5,40.8,33.6,89,80,68,29.72,29.59,7,3,14,0.02
2013-11-2,49.2,42.0,33.7,45.7,37.8,27.3,89,85,70,29.59,28.91,13,3,22,0.84
2013-11-3,47.1,42.0,31.8,42.3,37.8,25.7,89,85,75,29.36,29.09,12,5,21,0.16
2013-11-4,45.3,36.9,31.2,40.5,30.5,23.4,89,78,66,29.40,29.22,3,0,5,0.02
2013-11-5,45.6,41.4,34.2,41.9,35.3,26.8,89,79,68,29.34,29.15,6,2,12,0.33
2013-11-6,48.4,45.8,43.7,43.3,40.5,37.0,88,82,76,29.44,29.31,6,2,11,0.09
2013-11-7,49.3,46.3,41.4,43.0,40.4,36.9,88,80,74,29.57,29.44,8,4,15,0.09
2013-11-8,48.6,45.3,39.7,42.6,39.7,33.1,88,81,73,29.58,29.52,5,2,13,0.19
2013-11-9,42.9,38.4,32.1,39.9,33.0,23.7,89,81,69,29.65,29.53,4,0,8,0.34
2013-11-10,45.9,36.9,31.1,40.6,31.2,23.6,89,80,66,30.15,29.66,3,0,5,0.02
2013-11-11,54.4,47.2,41.3,45.9,41.7,36.8,89,81,62,30.12,29.92,5,1,7,0.24
2013-11-12,50.4,47.6,45.3,46.6,42.8,40.8,88,83,76,30.44,30.11,8,4,14,0.00
2013-11-13,49.7,47.3,45.2,45.7,42.3,40.2,88,83,72,30.45,29.92,10,4,16,0.33
2013-11-14,48.9,43.0,33.9,44.3,37.9,31.0,89,82,74,30.50,29.93,9,4,14,0.04
2013-11-15,48.9,44.2,33.5,45.5,40.6,29.7,89,87,81,30.52,30.43,4,1,6,0.00
2013-11-16,51.3,50.2,47.9,47.5,44.7,43.2,88,81,78,30.44,30.31,8,3,13,0.02
2013-11-17,50.7,45.9,36.4,45.8,41.4,31.5,89,84,72,30.36,29.93,3,0,4,0.18
2013-11-18,50.4,42.2,33.9,42.7,36.1,29.3,90,79,69,29.92,29.78,4,1,7,0.43
2013-11-19,42.4,34.6,28.7,38.8,31.2,26.1,90,87,79,30.06,29.79,8,1,16,0.11
2013-11-20,44.9,41.4,38.0,41.7,37.0,33.5,90,84,76,29.77,29.46,11,5,24,0.41
2013-11-21,40.4,39.1,37.0,37.4,35.5,33.9,90,87,79,30.11,29.68,8,2,13,0.04
2013-11-22,42.2,33.5,26.8,38.1,29.8,22.3,90,86,78,30.29,30.11,1,0,2,0.01
2013-11-23,39.4,34.0,26.1,36.0,28.8,21.5,89,81,76,30.42,30.29,1,0,3,0.01
2013-11-24,44.0,38.4,30.1,40.7,33.6,27.3,90,83,75,30.69,30.42,2,0,2,0.00
2013-11-25,38.4,31.5,26.6,35.7,28.0,22.1,90,87,82,30.75,30.69,0,0,1,0.01
2013-11-26,48.8,44.5,38.3,45.3,41.2,35.3,90,88,81,30.74,30.57,5,2,8,0.00
2013-11-27,50.2,48.7,47.8,47.1,43.9,40.3,89,84,73,30.57,30.52,4,2,8,0.00
2013-11-28,48.0,44.9,39.6,44.2,40.2,36.7,90,84,75,30.60,30.43,3,0,4,0.00
2013-11-29,48.9,44.9,39.9,44.7,40.4,35.8,89,84,78,30.42,30.16,11,6,20,0.09
2013-11-30,46.5,40.1,31.7,43.2,36.7,28.3,90,87,81,30.42,30.27,5,1,8,0.00
2013-12-1,49.5,44.1,36.2,45.5,40.4,30.9,90,87,80,30.58,30.41,5,1,7,0.00
2013-12-2,47.7,44.0,35.7,42.2,38.7,29.6,90,82,72,30.58,30.40,6,1,10,0.01
2013-12-3,49.3,47.7,43.9,45.8,43.4,39.7,89,85,78,30.40,30.17,6,3,10,0.08
2013-12-4,45.1,41.3,34.8,39.3,37.3,30.1,90,85,79,30.36,30.21,10,3,12,0.01
2013-12-5,46.5,41.1,34.3,43.4,36.2,29.6,90,83,67,30.24,29.64,20,10,32,0.11
2013-12-6,40.7,38.0,35.4,35.4,31.7,28.6,89,78,70,30.33,30.19,6,2,10,0.06
2013-12-7,47.7,45.4,39.6,44.2,41.6,31.8,89,87,66,30.24,30.05,7,4,14,0.22
2013-12-8,52.0,49.7,47.3,48.6,46.1,43.5,89,87,81,30.08,29.98,9,6,17,0.28
2013-12-9,52.0,50.6,46.7,48.6,46.4,41.1,89,86,80,30.25,30.07,7,3,13,0.00
2013-12-10,51.8,49.1,44.5,47.4,44.1,41.1,89,83,75,30.31,30.20,6,2,11,0.00
2013-12-11,51.1,44.8,40.1,46.9,40.5,35.6,89,85,74,30.30,30.11,3,1,7,0.00
2013-12-12,53.2,49.7,41.3,48.0,42.4,33.0,89,76,50,30.11,29.99,4,2,10,0.22
2013-12-13,53.1,50.3,44.9,49.5,44.1,37.9,89,79,63,29.99,29.79,9,3,17,0.31
2013-12-14,51.3,47.4,41.9,47.5,42.5,36.3,89,83,76,30.01,29.61,12,5,24,1.56
2013-12-15,52.9,47.5,40.6,49.4,42.6,37.0,89,83,65,29.97,29.61,12,3,20,0.41
2013-12-16,52.8,45.3,40.9,48.8,39.9,35.9,89,81,71,30.03,29.57,8,4,14,0.57
2013-12-17,43.9,39.1,34.1,38.8,35.2,28.2,89,86,72,30.15,29.85,5,1,7,0.03
2013-12-18,50.5,44.5,37.3,47.4,39.9,34.2,89,84,73,29.85,28.90,8,3,14,1.45
2013-12-19,45.3,40.7,36.8,38.3,34.9,33.2,89,80,72,29.60,29.00,12,6,18,0.25
2013-12-20,51.6,45.8,40.1,48.2,41.0,34.7,89,83,77,29.85,29.54,11,7,19,1.28
2013-12-21,51.2,47.0,40.1,46.7,41.2,36.2,89,80,73,29.63,29.28,12,7,23,0.75
2013-12-22,44.2,41.2,37.9,38.8,35.4,32.8,89,80,74,29.64,29.39,11,7,18,0.35
2013-12-23,50.2,44.8,38.3,46.6,40.4,34.4,89,84,77,29.61,28.40,8,4,17,2.56
2013-12-24,49.0,42.6,39.3,45.6,35.3,29.0,89,76,59,28.67,28.36,14,7,24,0.55
2013-12-25,44.7,40.4,35.3,37.3,35.0,31.7,89,81,69,29.15,28.66,8,2,12,0.02
2013-12-26,40.6,37.6,34.3,37.6,33.0,27.3,89,83,72,29.33,28.70,6,1,12,0.35
2013-12-27,48.1,44.8,39.7,42.7,40.2,36.1,89,84,77,28.94,28.35,15,10,25,0.75
2013-12-28,43.6,42.6,41.8,38.4,36.7,35.0,82,80,74,29.56,28.94,9,7,19,0.00
2013-12-29,44.5,42.3,40.8,40.6,37.6,34.7,89,83,74,29.86,29.57,6,3,13,0.42
2013-12-30,49.2,45.2,39.3,45.8,41.4,34.9,89,86,81,29.66,29.21,11,4,20,2.23
2013-12-31,45.1,42.3,39.5,42.0,38.9,36.5,89,88,80,29.64,29.31,4,2,10,0.62
2014-1-1,50.9,43.3,39.7,47.6,39.9,36.2,89,88,77,29.33,28.72,7,2,12,0.54
2014-1-2,46.6,44.4,41.4,41.6,40.4,37.5,89,86,77,29.19,28.84,7,4,10,0.32